IRIDIUM 96 [-] (27376 NORAD) Tracking and Keplerian Element Data

This shows tracking and keplerian element data for the satellite.

Feedback or suggestion? Click here.




ElementValue
Catalog27376
NameIRIDIUM 96 [-]
Epoch Orbit89374
Epoch Day323.42200529
Epoch Year2018
RAAN79.0107
Inclination86.3746
Eccentricity0.0250537
Argument of Perigee344.4654
Mean Anonmoly14.9001
Mean Motion15.37155337
Decay Rate0.00028747
L11 27376U 02005E 18323.42200529 .00028747 -95047-6 25889-3 0 9998
L22 27376 86.3746 79.0107 0250537 344.4654 14.9001 15.37155337893743

Live tracking and technical data element details for IRIDIUM 96 [-] (NORAD 27376). IRIDIUM 96 [-] can be tracked NOW for your location showing map with azimuth and elevation plus other details from your city location.

Track the satellite on the map from your city or location and see movement details for azimuth, elevation, latitude, longitude, range, height, and movement on the map or in text.







IsCatalogInMostPopularTable: catalog: 27376, numindb: 51
Update: records affected: 1



GetName: 27376 IRIDIUM 96 [-]

Hit Count: updated at: Wed, 21 Nov 2018 06:08:28 GMT